Temp
71 70 68 67 66 66 67 67 66 65 66 67 67 67 66 65 64 63 62 61 60 60 60 60 60 59 59 58 58 58 57 55 55 54 53 54 54 54 53 53 54 54 53 52 51 50 50 49 49 49 49 48 48 47 47 46 46 45 45 44 43 43 42 43 43 42 42 42 41
71 70 68 65 65 66 67 67 65 65 66 67 67 67 66 65 65 64 63 62 61 61 61 60 60 59 59 57 58 58 57 56 55 54 54 54 55 54 54 53 54 54 54 52 51 51 50 49 49 49 49 49 48 47 47 45 45 45 45 44 43 43 43 43 43 43 42 42 41
71 70 69 68 68 68 67 67 67 66 66 67 67 67 67 66 65 64 63 63 62 62 61 61 61 60 58 58 58 58 57 56 56 55 55 55 55 54 54 54 54 54 53 52 51 51 50 49 49 49 49 50 48 48 47 45 45 45 45 44 44 44 44 45 44 43 42 42 41
72 71 70 69 68 67 68 68 67 67 67 67 67 67 66 66 65 64 64 62 62 62 62 62 62 61 60 59 59 58 57 55 56 56 56 56 55 54 54 53 54 54 53 52 51 50 49 49 49 49 49 48 47 47 47 47 46 45 45 44 44 44 45 46 45 44 43 42 41
72 72 71 70 68 68 68 68 67 67 67 68 68 67 66 66 65 65 64 63 63 62 62 62 63 62 61 60 59 58 56 55 54 55 56 56 55 55 54 54 54 54 53 52 51 50 50 49 50 49 48 47 49 49 48 47 46 46 46 46 45 46 46 46 45 44 43 42 40
72 72 72 70 68 68 68 69 67 67 67 68 67 66 66 66 65 64 63 63 62 61 60 60 61 61 60 59 59 58 57 56 55 56 57 56 56 55 54 54 54 54 54 52 51 51 50 50 50 49 48 48 48 48 47 47 47 47 47 47 46 46 46 45 44 43 42 41 40
73 73 72 71 69 69 69 68 68 68 68 68 66 65 65 65 64 63 62 63 62 61 60 60 60 60 60 59 59 58 57 56 56 56 56 57 56 56 55 55 55 54 53 53 52 51 50 49 50 50 48 48 49 48 47 48 49 48 48 48 47 46 44 43 42 42 41 41 40
74 73 72 71 70 70 69 68 68 67 67 68 66 65 65 65 64 63 62 61 61 61 61 61 61 60 60 59 59 59 58 57 56 56 57 57 56 56 56 56 55 55 54 54 53 51 50 49 50 50 48 49 49 48 48 48 49 49 48 48 47 45 43 41 41 41 41 41 41
74 74 73 71 71 70 70 69 68 67 67 66 65 65 65 65 64 63 62 61 60 60 60 61 60 59 59 59 59 60 59 59 58 58 57 57 57 56 56 56 55 55 54 54 53 51 50 50 50 50 49 51 50 49 48 48 49 49 48 47 46 44 42 41 41 41 41 41 41
74 73 73 71 70 70 70 69 68 67 66 65 63 63 63 62 63 63 63 62 61 61 60 61 60 59 58 59 60 60 60 60 60 59 59 58 58 57 57 56 55 54 54 53 52 51 50 50 50 50 50 50 49 49 48 48 48 48 48 47 45 44 43 42 42 42 42 41 41
74 73 73 72 70 69 69 68 67 67 66 66 62 62 63 62 62 63 63 63 62 61 61 61 60 59 59 59 60 61 61 61 61 60 60 59 58 57 57 56 55 54 54 53 53 52 52 51 51 51 50 50 49 49 49 48 48 48 47 45 45 44 44 43 43 43 43 42 41
74 73 73 72 70 70 69 68 68 67 66 66 64 64 65 64 64 63 63 63 62 62 62 62 62 61 61 60 61 61 61 62 61 60 60 59 58 57 56 55 55 54 54 53 53 53 53 53 52 51 51 50 50 50 50 49 48 47 47 45 45 45 45 44 44 43 43 42 42
73 73 72 72 70 70 69 68 68 67 67 66 65 65 65 65 64 64 63 62 61 62 63 63 63 62 62 61 61 62 62 62 61 60 60 59 58 57 56 55 54 54 54 54 54 54 54 53 52 52 51 51 51 50 50 49 48 48 47 46 45 45 45 45 44 43 42 42 41
73 72 72 71 70 69 69 68 68 68 67 66 66 66 66 65 64 64 63 63 63 63 64 63 62 62 62 62 62 62 61 61 61 60 59 58 57 56 56 55 55 54 54 54 54 54 53 53 52 52 52 51 51 50 49 50 49 49 48 47 46 46 46 45 44 43 42 41 40
73 72 72 71 70 70 69 68 68 68 67 66 66 66 66 66 64 64 64 63 64 64 64 63 62 62 62 62 62 62 61 61 60 59 58 57 56 56 56 55 55 55 54 54 53 53 53 53 53 53 53 52 52 51 51 51 50 49 49 48 47 46 46 45 44 43 42 41 40
72 72 71 71 70 69 69 68 68 68 67 66 67 66 66 66 65 64 63 64 64 64 64 63 63 63 62 62 61 61 60 59 59 59 58 57 56 56 56 55 55 55 54 54 53 53 53 53 53 53 53 53 53 53 52 52 51 50 48 47 47 46 45 45 44 43 43 42 41
72 72 71 70 70 69 69 68 68 68 67 67 67 66 66 66 65 64 62 63 64 64 63 63 63 62 62 60 60 60 60 59 58 58 58 58 57 56 56 55 55 55 55 54 54 53 53 52 53 53 54 54 53 53 52 52 50 49 48 47 46 46 45 44 44 44 43 42 41
72 71 71 70 69 69 68 68 68 67 67 67 66 66 66 65 65 63 62 62 63 63 62 62 62 62 61 60 59 59 59 58 58 58 58 58 57 57 56 56 55 55 55 55 55 54 53 53 53 53 54 53 53 52 52 51 50 48 47 45 45 45 44 44 44 43 43 42 42
72 71 71 70 69 69 68 67 67 67 67 67 67 66 65 65 64 63 63 62 62 62 62 62 62 61 60 59 59 58 58 58 58 58 58 57 57 57 57 56 56 56 56 55 55 55 54 54 54 53 53 53 52 52 51 51 49 47 46 45 44 44 43 43 42 42 42 42 42
72 71 70 70 69 69 68 67 67 67 67 67 66 66 65 64 63 63 62 61 60 60 61 62 61 61 60 59 58 58 58 58 58 58 58 57 57 57 57 57 57 56 56 56 55 55 55 55 54 53 53 52 52 51 50 49 47 46 45 44 44 43 43 43 42 42 42 41 42
72 71 71 70 70 69 69 68 68 67 67 67 66 65 64 63 62 62 61 60 59 59 60 61 61 60 60 59 58 58 58 58 58 58 58 58 58 58 57 57 56 56 56 56 55 55 55 54 54 53 52 51 51 50 49 47 46 45 45 44 44 43 43 43 43 42 42 41 41
72 72 71 71 70 69 69 68 67 67 66 66 65 64 63 62 61 60 60 59 58 58 58 58 59 60 60 59 59 58 57 56 57 57 58 58 58 57 57 56 56 56 56 55 55 54 54 53 53 52 52 51 50 49 47 46 45 44 44 43 43 43 43 43 42 42 42 42 42
72 72 71 70 69 67 66 65 65 65 65 65 64 63 62 61 60 59 59 58 58 57 57 56 58 59 59 59 58 58 57 55 56 57 57 57 57 57 57 56 56 55 54 54 54 53 53 53 52 52 51 50 49 48 47 46 45 44 43 42 42 42 42 42 42 42 42 42 42
68 68 66 65 63 62 61 61 60 61 61 62 62 62 61 60 60 59 59 58 58 58 58 58 58 58 57 58 58 57 57 56 56 57 57 57 57 56 56 55 54 54 53 52 51 51 51 51 51 51 50 49 48 47 45 44 43 42 42 41 41 41 41 41 41 42 42 42 42
63 62 60 60 59 58 57 57 57 57 57 58 59 60 60 60 60 60 59 59 59 59 59 58 58 57 56 57 57 57 57 56 56 56 56 56 56 55 55 54 54 53 52 50 48 47 47 47 49 50 50 48 47 45 43 42 42 41 41 40 40 40 40 40 40 41 41 41 41
60 59 58 58 58 58 57 57 56 55 55 56 57 57 59 60 60 60 60 59 59 58 58 58 58 56 56 57 56 56 56 55 55 55 55 54 54 54 54 54 54 53 51 49 46 45 44 45 46 46 46 47 45 44 42 41 41 40 40 39 39 39 39 39 39 40 40 41 41
59 58 58 58 58 57 56 56 56 56 56 56 56 56 57 58 60 60 60 59 58 57 57 58 57 55 54 56 56 56 55 53 54 54 54 53 53 53 53 53 53 52 50 47 45 44 44 44 43 43 43 44 44 43 42 40 40 39 39 38 38 38 38 38 38 39 39 40 40
58 58 58 58 57 57 56 56 56 56 57 57 57 57 57 58 59 59 59 58 57 57 57 56 55 54 53 54 55 55 54 53 53 53 52 52 52 52 53 53 52 50 48 46 44 43 43 43 42 42 41 41 42 42 41 40 39 39 38 38 38 38 38 38 38 38 39 39 40
58 58 58 58 57 57 57 56 56 56 56 56 56 57 57 57 58 58 58 57 56 56 55 54 53 53 53 53 54 54 54 53 52 52 52 52 52 52 52 51 51 48 46 44 43 43 42 42 42 42 41 41 41 41 40 40 40 39 38 38 38 38 38 38 38 38 38 38 39
58 58 58 58 58 58 58 57 57 56 55 55 55 56 56 56 57 57 57 56 55 55 54 53 52 52 52 52 53 53 53 52 52 52 51 51 50 50 50 50 50 48 45 42 42 42 42 42 42 41 41 41 40 39 40 40 40 39 38 38 38 38 38 38 38 37 37 38 38
58 58 58 58 59 59 58 58 57 56 55 55 55 55 55 55 55 56 56 56 55 54 53 53 52 52 51 51 51 51 51 51 51 51 50 50 49 49 49 49 49 47 44 41 42 42 42 42 42 41 41 40 39 39 40 40 39 39 39 38 38 38 37 37 37 37 37 37 37
58 58 58 58 58 58 57 56 56 55 55 55 54 54 54 54 55 55 55 55 54 53 52 52 52 51 51 51 51 51 50 50 50 50 49 49 49 49 48 48 47 44 42 41 42 42 42 42 42 41 40 40 39 39 40 40 39 39 39 39 38 38 38 38 38 37 37 37 37
58 58 58 57 57 57 56 55 54 54 53 53 53 53 53 53 54 54 55 54 53 52 52 52 52 51 51 50 50 49 49 49 49 48 48 47 48 47 47 45 44 42 40 41 41 42 42 42 42 41 40 39 39 39 39 39 40 39 39 38 38 37 37 37 37 37 37 37 37
58 58 57 57 56 55 55 54 53 53 52 52 52 52 52 52 52 52 52 51 51 51 51 51 51 51 50 50 49 48 48 48 48 48 47 47 46 45 45 43 43 42 41 40 41 41 41 42 42 41 41 39 39 39 39 39 39 39 38 38 37 37 37 37 37 37 37 37 38
58 57 56 56 55 55 54 53 52 51 51 50 50 50 50 50 50 50 49 48 48 49 49 49 49 49 49 49 48 47 46 46 46 46 46 45 44 43 43 42 41 41 40 40 40 41 41 41 41 41 40 39 38 37 37 37 38 37 37 37 37 37 37 36 37 37 37 37 37
58 57 56 55 55 54 53 52 52 51 50 49 49 48 48 48 47 47 47 46 46 47 47 47 47 47 46 45 45 45 44 45 45 44 44 43 42 42 42 41 41 40 40 40 40 40 41 41 41 40 40 38 37 36 36 36 36 36 36 36 36 36 36 36 36 37 37 37 37
57 56 55 55 54 53 53 52 52 51 49 48 47 47 47 47 46 46 46 46 46 46 46 45 45 45 44 44 44 44 44 44 44 43 42 42 42 42 41 41 42 41 40 40 40 40 40 40 40 40 39 37 35 35 35 35 35 35 35 34 35 35 35 36 36 36 36 36 37
56 56 55 54 54 53 52 52 51 50 49 47 47 46 46 46 46 45 45 45 45 45 45 44 44 44 44 44 44 44 43 43 43 42 42 42 42 42 42 42 43 42 41 40 40 40 40 40 40 39 38 35 35 34 34 34 34 34 34 34 34 34 35 35 35 35 36 36 38
56 55 55 54 53 53 52 51 50 49 48 47 47 46 46 46 46 45 45 46 46 45 45 44 44 44 43 43 43 42 42 42 42 42 42 43 42 42 42 42 43 43 42 40 40 40 40 40 40 39 38 35 35 34 34 33 33 33 33 33 33 34 34 34 35 35 35 35 39
56 55 55 54 53 53 52 51 50 48 47 47 47 47 46 46 45 46 46 45 45 45 45 45 44 43 42 42 42 42 42 42 42 43 43 43 43 42 42 42 43 43 42 40 40 40 40 40 40 40 38 35 34 33 33 33 33 32 32 32 33 33 34 34 34 35 35 34 37
55 54 54 53 53 53 52 51 49 48 47 47 47 47 46 46 46 45 45 45 45 45 45 45 44 42 41 41 42 42 43 43 43 44 44 43 43 43 42 43 43 43 42 41 41 40 40 41 40 40 38 34 33 32 33 32 32 32 32 32 32 33 34 34 34 34 34 34 35
MSLP
1014.26 1014.42 1014.62 1014.78 1014.98 1015.18 1015.38 1015.58 1015.78 1015.98 1016.10 1016.34 1016.54 1016.74 1016.98 1017.26 1017.54 1017.82 1018.06 1018.22 1018.42 1018.58 1018.74 1018.86 1019.06 1019.18 1019.30 1019.46 1019.54 1019.66 1019.82 1019.98 1020.14 1020.38 1020.54 1020.74 1020.98 1021.18 1021.34 1021.54 1021.70 1021.82 1022.02 1022.18 1022.38 1022.50 1022.62 1022.78 1022.94 1023.10 1023.30 1023.46 1023.62 1023.74 1023.86 1023.94 1024.06 1024.26 1024.42 1024.50 1024.66 1024.78 1024.86 1024.98 1025.10 1025.18 1025.22 1025.26 1025.30
1014.06 1014.22 1014.42 1014.62 1014.82 1014.98 1015.22 1015.46 1015.66 1015.82 1015.98 1016.10 1016.26 1016.42 1016.70 1016.90 1017.22 1017.46 1017.70 1017.90 1018.06 1018.26 1018.46 1018.70 1018.90 1019.06 1019.18 1019.34 1019.42 1019.54 1019.70 1019.94 1020.10 1020.30 1020.54 1020.70 1020.86 1021.06 1021.26 1021.42 1021.58 1021.74 1021.90 1022.10 1022.26 1022.42 1022.58 1022.70 1022.86 1023.10 1023.26 1023.42 1023.58 1023.70 1023.82 1023.94 1024.02 1024.18 1024.34 1024.42 1024.54 1024.62 1024.70 1024.82 1024.86 1024.94 1025.02 1025.10 1025.18
1013.82 1014.02 1014.26 1014.42 1014.66 1014.82 1015.06 1015.34 1015.50 1015.66 1015.82 1015.94 1016.10 1016.26 1016.46 1016.70 1016.86 1017.10 1017.34 1017.54 1017.74 1017.98 1018.26 1018.46 1018.70 1018.82 1018.98 1019.14 1019.30 1019.46 1019.66 1019.82 1020.06 1020.26 1020.50 1020.66 1020.82 1021.02 1021.22 1021.38 1021.54 1021.70 1021.82 1021.98 1022.14 1022.30 1022.46 1022.62 1022.82 1022.98 1023.18 1023.38 1023.54 1023.70 1023.82 1023.86 1023.98 1024.10 1024.26 1024.34 1024.42 1024.46 1024.54 1024.66 1024.74 1024.82 1024.86 1024.98 1025.06
1013.62 1013.82 1014.02 1014.26 1014.46 1014.66 1014.82 1015.02 1015.22 1015.42 1015.58 1015.74 1015.90 1016.10 1016.26 1016.46 1016.70 1016.90 1017.10 1017.38 1017.62 1017.82 1018.02 1018.18 1018.42 1018.66 1018.82 1019.02 1019.26 1019.38 1019.58 1019.82 1020.02 1020.22 1020.42 1020.58 1020.74 1020.90 1021.06 1021.26 1021.38 1021.58 1021.74 1021.86 1022.02 1022.22 1022.38 1022.54 1022.70 1022.90 1023.10 1023.26 1023.42 1023.58 1023.70 1023.78 1023.90 1023.98 1024.10 1024.18 1024.26 1024.34 1024.42 1024.50 1024.54 1024.66 1024.74 1024.86 1024.98
1013.42 1013.54 1013.74 1013.98 1014.18 1014.38 1014.54 1014.70 1014.94 1015.14 1015.34 1015.50 1015.70 1015.94 1016.10 1016.26 1016.50 1016.74 1017.02 1017.30 1017.50 1017.66 1017.82 1017.98 1018.22 1018.46 1018.70 1018.94 1019.14 1019.38 1019.58 1019.82 1019.98 1020.14 1020.34 1020.50 1020.62 1020.78 1020.94 1021.10 1021.26 1021.38 1021.58 1021.70 1021.86 1022.06 1022.26 1022.42 1022.62 1022.82 1023.02 1023.22 1023.38 1023.46 1023.54 1023.66 1023.78 1023.90 1023.98 1024.06 1024.10 1024.22 1024.30 1024.42 1024.46 1024.54 1024.66 1024.78 1024.90
1013.18 1013.30 1013.46 1013.70 1013.90 1014.10 1014.26 1014.46 1014.66 1014.86 1015.10 1015.26 1015.50 1015.70 1015.90 1016.10 1016.30 1016.54 1016.82 1017.06 1017.26 1017.42 1017.66 1017.90 1018.10 1018.42 1018.70 1018.94 1019.14 1019.38 1019.58 1019.78 1019.90 1020.02 1020.22 1020.38 1020.50 1020.66 1020.78 1020.98 1021.10 1021.26 1021.38 1021.54 1021.70 1021.90 1022.10 1022.30 1022.54 1022.74 1022.94 1023.10 1023.22 1023.30 1023.38 1023.46 1023.62 1023.78 1023.94 1024.02 1024.06 1024.10 1024.22 1024.34 1024.42 1024.46 1024.54 1024.70 1024.86
1012.86 1013.02 1013.26 1013.46 1013.70 1013.94 1014.10 1014.26 1014.46 1014.70 1014.82 1015.02 1015.26 1015.46 1015.62 1015.78 1016.02 1016.26 1016.54 1016.82 1017.10 1017.38 1017.62 1017.86 1018.06 1018.34 1018.70 1018.98 1019.22 1019.38 1019.58 1019.74 1019.86 1019.98 1020.06 1020.22 1020.34 1020.50 1020.66 1020.78 1020.90 1021.02 1021.18 1021.38 1021.54 1021.70 1021.94 1022.14 1022.42 1022.66 1022.82 1022.98 1023.10 1023.22 1023.26 1023.38 1023.50 1023.70 1023.82 1023.98 1024.02 1024.06 1024.14 1024.26 1024.34 1024.42 1024.54 1024.66 1024.74
1012.54 1012.74 1012.94 1013.18 1013.46 1013.70 1013.86 1014.10 1014.26 1014.50 1014.70 1014.82 1015.02 1015.18 1015.34 1015.54 1015.78 1016.06 1016.38 1016.70 1017.02 1017.30 1017.54 1017.74 1017.98 1018.26 1018.58 1018.98 1019.22 1019.38 1019.54 1019.70 1019.82 1019.90 1019.98 1020.06 1020.22 1020.38 1020.50 1020.58 1020.74 1020.90 1021.06 1021.26 1021.42 1021.62 1021.82 1022.06 1022.26 1022.50 1022.70 1022.82 1022.98 1023.10 1023.18 1023.26 1023.38 1023.58 1023.74 1023.86 1023.94 1023.98 1024.10 1024.18 1024.26 1024.30 1024.42 1024.54 1024.66
1012.42 1012.54 1012.70 1012.94 1013.18 1013.38 1013.62 1013.82 1014.06 1014.26 1014.46 1014.62 1014.78 1014.94 1015.10 1015.34 1015.62 1015.90 1016.22 1016.54 1016.86 1017.14 1017.42 1017.66 1017.82 1018.10 1018.46 1018.86 1019.18 1019.38 1019.46 1019.54 1019.70 1019.82 1019.90 1019.98 1020.10 1020.26 1020.42 1020.54 1020.70 1020.86 1021.10 1021.26 1021.38 1021.58 1021.82 1021.98 1022.18 1022.38 1022.54 1022.70 1022.82 1022.98 1023.10 1023.18 1023.34 1023.50 1023.66 1023.74 1023.86 1023.98 1024.02 1024.10 1024.14 1024.22 1024.26 1024.42 1024.58
1012.18 1012.30 1012.50 1012.74 1012.98 1013.14 1013.38 1013.66 1013.82 1014.02 1014.22 1014.42 1014.62 1014.82 1014.98 1015.18 1015.42 1015.70 1015.98 1016.26 1016.66 1017.02 1017.30 1017.54 1017.74 1017.94 1018.22 1018.58 1018.98 1019.26 1019.38 1019.46 1019.54 1019.66 1019.78 1019.86 1019.98 1020.10 1020.26 1020.46 1020.70 1020.90 1021.10 1021.30 1021.46 1021.62 1021.78 1021.98 1022.14 1022.30 1022.42 1022.54 1022.70 1022.82 1022.98 1023.10 1023.26 1023.38 1023.54 1023.66 1023.78 1023.86 1023.98 1023.98 1024.02 1024.06 1024.14 1024.30 1024.42
1011.94 1012.06 1012.26 1012.54 1012.74 1012.94 1013.18 1013.50 1013.74 1013.94 1014.10 1014.30 1014.54 1014.70 1014.86 1015.10 1015.26 1015.54 1015.78 1016.06 1016.42 1016.82 1017.06 1017.26 1017.54 1017.74 1017.94 1018.10 1018.54 1018.90 1019.10 1019.22 1019.34 1019.46 1019.62 1019.78 1019.90 1020.06 1020.22 1020.42 1020.62 1020.82 1021.02 1021.26 1021.42 1021.58 1021.74 1021.90 1022.10 1022.26 1022.34 1022.46 1022.58 1022.74 1022.90 1023.02 1023.14 1023.26 1023.38 1023.54 1023.62 1023.74 1023.82 1023.90 1023.90 1023.94 1024.02 1024.14 1024.26
1011.70 1011.82 1012.02 1012.26 1012.54 1012.82 1013.06 1013.38 1013.58 1013.82 1014.02 1014.22 1014.42 1014.58 1014.78 1014.98 1015.14 1015.38 1015.70 1015.98 1016.26 1016.54 1016.78 1017.02 1017.26 1017.46 1017.62 1017.82 1018.10 1018.46 1018.74 1018.94 1019.10 1019.26 1019.42 1019.62 1019.78 1019.98 1020.18 1020.42 1020.58 1020.74 1020.98 1021.14 1021.30 1021.46 1021.66 1021.82 1021.98 1022.14 1022.30 1022.42 1022.54 1022.62 1022.78 1022.94 1023.06 1023.18 1023.26 1023.38 1023.46 1023.58 1023.66 1023.70 1023.74 1023.82 1023.86 1023.98 1024.10
1011.46 1011.66 1011.86 1012.14 1012.42 1012.70 1012.98 1013.22 1013.42 1013.70 1013.90 1014.10 1014.26 1014.42 1014.62 1014.86 1015.06 1015.26 1015.54 1015.82 1016.06 1016.34 1016.54 1016.78 1016.98 1017.18 1017.38 1017.58 1017.82 1018.14 1018.46 1018.70 1018.86 1019.06 1019.30 1019.54 1019.70 1019.90 1020.10 1020.34 1020.54 1020.70 1020.90 1021.10 1021.26 1021.38 1021.54 1021.70 1021.90 1022.06 1022.22 1022.38 1022.46 1022.54 1022.66 1022.78 1022.94 1023.06 1023.18 1023.26 1023.34 1023.38 1023.46 1023.50 1023.54 1023.66 1023.78 1023.90 1024.02
1011.30 1011.50 1011.74 1011.98 1012.26 1012.54 1012.82 1013.06 1013.30 1013.54 1013.78 1013.94 1014.10 1014.26 1014.50 1014.70 1014.94 1015.14 1015.38 1015.66 1015.86 1016.10 1016.38 1016.62 1016.82 1017.02 1017.22 1017.38 1017.54 1017.86 1018.22 1018.46 1018.70 1018.90 1019.14 1019.38 1019.62 1019.82 1020.02 1020.26 1020.46 1020.66 1020.82 1021.02 1021.22 1021.34 1021.50 1021.70 1021.86 1022.02 1022.18 1022.30 1022.42 1022.46 1022.54 1022.70 1022.82 1022.94 1023.02 1023.10 1023.18 1023.26 1023.26 1023.30 1023.38 1023.54 1023.66 1023.82 1023.94
1011.14 1011.34 1011.54 1011.82 1012.10 1012.42 1012.66 1012.94 1013.18 1013.38 1013.62 1013.82 1013.98 1014.14 1014.38 1014.58 1014.82 1014.98 1015.22 1015.46 1015.70 1015.90 1016.14 1016.46 1016.70 1016.90 1017.06 1017.22 1017.38 1017.70 1017.98 1018.26 1018.54 1018.78 1019.06 1019.30 1019.50 1019.70 1019.82 1020.06 1020.30 1020.54 1020.74 1020.98 1021.18 1021.34 1021.50 1021.70 1021.86 1021.98 1022.10 1022.22 1022.30 1022.42 1022.58 1022.70 1022.78 1022.82 1022.82 1022.90 1022.98 1022.98 1023.06 1023.10 1023.26 1023.38 1023.50 1023.66 1023.82
1010.98 1011.22 1011.42 1011.70 1011.98 1012.26 1012.54 1012.78 1012.98 1013.22 1013.46 1013.70 1013.82 1014.02 1014.26 1014.46 1014.70 1014.86 1015.10 1015.26 1015.50 1015.70 1015.98 1016.26 1016.54 1016.74 1016.98 1017.14 1017.38 1017.62 1017.90 1018.18 1018.42 1018.70 1018.90 1019.18 1019.38 1019.54 1019.70 1019.86 1020.10 1020.34 1020.58 1020.86 1021.10 1021.30 1021.54 1021.74 1021.86 1021.94 1021.98 1022.10 1022.30 1022.50 1022.70 1022.78 1022.74 1022.70 1022.70 1022.74 1022.78 1022.82 1022.90 1022.98 1023.10 1023.18 1023.26 1023.42 1023.58
1010.82 1011.02 1011.26 1011.50 1011.78 1012.02 1012.30 1012.58 1012.82 1013.02 1013.30 1013.54 1013.70 1013.86 1014.06 1014.26 1014.54 1014.78 1014.98 1015.10 1015.26 1015.54 1015.82 1016.10 1016.34 1016.58 1016.82 1017.10 1017.30 1017.58 1017.86 1018.10 1018.38 1018.58 1018.82 1019.02 1019.26 1019.46 1019.62 1019.78 1019.98 1020.22 1020.46 1020.70 1020.94 1021.22 1021.54 1021.74 1021.82 1021.78 1021.82 1022.02 1022.30 1022.58 1022.74 1022.74 1022.70 1022.62 1022.58 1022.58 1022.58 1022.66 1022.74 1022.82 1022.90 1022.98 1023.10 1023.22 1023.34
1010.62 1010.82 1011.02 1011.26 1011.54 1011.78 1012.06 1012.34 1012.58 1012.82 1013.10 1013.30 1013.54 1013.70 1013.86 1014.10 1014.38 1014.62 1014.82 1014.98 1015.10 1015.38 1015.66 1015.94 1016.18 1016.42 1016.70 1016.98 1017.26 1017.54 1017.82 1018.10 1018.30 1018.54 1018.74 1018.98 1019.22 1019.42 1019.62 1019.78 1019.94 1020.10 1020.34 1020.54 1020.70 1020.98 1021.30 1021.50 1021.54 1021.54 1021.70 1021.98 1022.30 1022.54 1022.62 1022.54 1022.54 1022.46 1022.42 1022.46 1022.46 1022.54 1022.54 1022.62 1022.70 1022.82 1022.90 1022.98 1023.10
1010.34 1010.54 1010.78 1010.98 1011.26 1011.54 1011.82 1012.10 1012.38 1012.62 1012.82 1013.06 1013.30 1013.50 1013.70 1013.98 1014.18 1014.42 1014.70 1014.90 1015.06 1015.26 1015.50 1015.78 1016.10 1016.38 1016.62 1016.90 1017.22 1017.50 1017.74 1018.02 1018.26 1018.50 1018.70 1018.94 1019.18 1019.38 1019.62 1019.82 1019.98 1020.10 1020.26 1020.42 1020.62 1020.86 1021.10 1021.18 1021.26 1021.38 1021.58 1021.94 1022.22 1022.34 1022.38 1022.30 1022.26 1022.26 1022.30 1022.30 1022.34 1022.38 1022.42 1022.50 1022.54 1022.62 1022.70 1022.78 1022.86
1010.02 1010.26 1010.50 1010.70 1010.98 1011.26 1011.54 1011.82 1012.10 1012.34 1012.54 1012.82 1013.06 1013.30 1013.58 1013.82 1014.06 1014.34 1014.62 1014.82 1015.02 1015.22 1015.42 1015.70 1015.98 1016.30 1016.58 1016.82 1017.10 1017.38 1017.70 1017.98 1018.26 1018.46 1018.70 1018.94 1019.14 1019.38 1019.58 1019.78 1019.98 1020.10 1020.26 1020.42 1020.58 1020.82 1020.98 1021.06 1021.10 1021.30 1021.58 1021.86 1022.06 1022.10 1022.10 1022.10 1022.10 1022.14 1022.14 1022.14 1022.18 1022.22 1022.26 1022.30 1022.38 1022.42 1022.54 1022.62 1022.70
1009.70 1009.94 1010.18 1010.42 1010.70 1011.02 1011.30 1011.54 1011.82 1012.10 1012.34 1012.58 1012.86 1013.10 1013.42 1013.74 1014.02 1014.26 1014.54 1014.74 1014.98 1015.22 1015.42 1015.62 1015.90 1016.22 1016.50 1016.78 1017.02 1017.30 1017.62 1017.90 1018.18 1018.42 1018.70 1018.98 1019.14 1019.30 1019.50 1019.66 1019.86 1020.06 1020.22 1020.42 1020.62 1020.78 1020.90 1020.98 1021.14 1021.34 1021.54 1021.74 1021.82 1021.86 1021.90 1021.94 1021.98 1021.98 1022.02 1022.02 1022.06 1022.06 1022.10 1022.14 1022.22 1022.30 1022.42 1022.46 1022.54
1009.42 1009.66 1009.94 1010.22 1010.50 1010.82 1011.10 1011.38 1011.62 1011.90 1012.18 1012.42 1012.70 1012.98 1013.34 1013.66 1013.98 1014.26 1014.46 1014.70 1014.98 1015.26 1015.46 1015.62 1015.82 1016.10 1016.38 1016.62 1016.90 1017.14 1017.46 1017.78 1018.06 1018.34 1018.62 1018.90 1019.10 1019.26 1019.38 1019.58 1019.82 1020.06 1020.26 1020.46 1020.66 1020.78 1020.82 1020.98 1021.10 1021.30 1021.50 1021.58 1021.62 1021.70 1021.70 1021.74 1021.82 1021.86 1021.94 1021.94 1021.98 1021.98 1021.98 1022.06 1022.10 1022.14 1022.22 1022.30 1022.38
1009.30 1009.54 1009.78 1010.06 1010.38 1010.70 1010.98 1011.30 1011.54 1011.82 1012.10 1012.34 1012.66 1012.98 1013.30 1013.66 1013.98 1014.26 1014.54 1014.74 1014.98 1015.26 1015.46 1015.66 1015.82 1016.02 1016.26 1016.50 1016.78 1017.02 1017.34 1017.62 1017.90 1018.14 1018.42 1018.70 1018.94 1019.10 1019.30 1019.54 1019.82 1020.10 1020.38 1020.54 1020.70 1020.78 1020.86 1021.02 1021.14 1021.26 1021.38 1021.42 1021.42 1021.46 1021.50 1021.54 1021.66 1021.74 1021.82 1021.90 1021.94 1021.94 1021.98 1021.98 1021.98 1022.02 1022.10 1022.14 1022.22
1009.42 1009.62 1009.86 1010.10 1010.42 1010.70 1011.02 1011.30 1011.58 1011.82 1012.10 1012.38 1012.66 1012.94 1013.26 1013.62 1013.94 1014.26 1014.54 1014.78 1014.98 1015.22 1015.42 1015.62 1015.82 1016.02 1016.26 1016.50 1016.70 1016.98 1017.26 1017.54 1017.82 1018.02 1018.22 1018.42 1018.70 1018.94 1019.26 1019.54 1019.86 1020.10 1020.34 1020.54 1020.66 1020.74 1020.86 1021.02 1021.10 1021.22 1021.26 1021.26 1021.26 1021.26 1021.30 1021.42 1021.54 1021.66 1021.78 1021.82 1021.90 1021.94 1021.98 1021.98 1021.98 1022.02 1022.06 1022.10 1022.10
1009.70 1009.94 1010.14 1010.42 1010.66 1010.86 1011.14 1011.46 1011.70 1011.98 1012.22 1012.42 1012.70 1012.98 1013.26 1013.54 1013.86 1014.18 1014.46 1014.70 1014.98 1015.18 1015.38 1015.62 1015.82 1016.10 1016.30 1016.54 1016.74 1016.98 1017.26 1017.54 1017.82 1017.98 1018.14 1018.34 1018.62 1018.90 1019.26 1019.58 1019.90 1020.10 1020.34 1020.54 1020.66 1020.70 1020.82 1020.98 1021.06 1021.10 1021.14 1021.14 1021.10 1021.18 1021.26 1021.30 1021.38 1021.54 1021.66 1021.74 1021.82 1021.94 1021.98 1021.98 1022.02 1022.02 1022.02 1022.06 1022.10
1009.94 1010.26 1010.50 1010.70 1010.86 1011.06 1011.30 1011.58 1011.86 1012.10 1012.34 1012.54 1012.82 1013.06 1013.30 1013.54 1013.82 1014.10 1014.42 1014.70 1014.90 1015.14 1015.38 1015.62 1015.82 1016.10 1016.30 1016.54 1016.78 1017.06 1017.38 1017.70 1017.94 1018.10 1018.30 1018.46 1018.70 1018.98 1019.30 1019.66 1019.90 1020.14 1020.34 1020.54 1020.62 1020.70 1020.82 1020.90 1020.94 1020.98 1020.98 1020.98 1021.02 1021.10 1021.18 1021.26 1021.34 1021.42 1021.54 1021.66 1021.78 1021.86 1021.98 1022.02 1022.02 1022.02 1022.02 1021.98 1021.98
1010.18 1010.54 1010.78 1010.82 1010.98 1011.22 1011.46 1011.70 1011.98 1012.22 1012.50 1012.70 1012.98 1013.18 1013.38 1013.62 1013.82 1014.10 1014.38 1014.66 1014.90 1015.14 1015.38 1015.62 1015.82 1016.10 1016.30 1016.54 1016.82 1017.14 1017.50 1017.82 1018.02 1018.26 1018.50 1018.70 1018.90 1019.14 1019.38 1019.70 1019.90 1020.10 1020.30 1020.46 1020.58 1020.70 1020.78 1020.82 1020.86 1020.86 1020.82 1020.82 1020.86 1020.98 1021.06 1021.18 1021.26 1021.34 1021.42 1021.58 1021.70 1021.82 1021.86 1021.98 1022.02 1022.02 1021.98 1021.98 1021.90
1010.42 1010.78 1010.94 1010.98 1011.10 1011.38 1011.62 1011.86 1012.10 1012.38 1012.62 1012.82 1013.02 1013.26 1013.42 1013.70 1013.90 1014.14 1014.38 1014.66 1014.90 1015.14 1015.38 1015.62 1015.82 1016.10 1016.38 1016.66 1016.94 1017.26 1017.54 1017.78 1018.02 1018.30 1018.58 1018.90 1019.10 1019.34 1019.54 1019.70 1019.90 1020.10 1020.26 1020.42 1020.54 1020.66 1020.70 1020.74 1020.74 1020.70 1020.70 1020.70 1020.74 1020.82 1020.94 1021.10 1021.22 1021.30 1021.38 1021.50 1021.62 1021.70 1021.78 1021.82 1021.90 1021.94 1021.94 1021.94 1021.86
1010.54 1010.82 1010.98 1011.10 1011.30 1011.54 1011.78 1012.02 1012.26 1012.50 1012.74 1012.98 1013.10 1013.30 1013.54 1013.78 1013.98 1014.22 1014.42 1014.70 1014.94 1015.18 1015.46 1015.70 1015.94 1016.18 1016.46 1016.74 1016.98 1017.26 1017.54 1017.78 1018.02 1018.30 1018.58 1018.90 1019.22 1019.42 1019.58 1019.82 1019.98 1020.10 1020.26 1020.42 1020.50 1020.54 1020.58 1020.58 1020.54 1020.50 1020.50 1020.54 1020.62 1020.74 1020.86 1020.98 1021.10 1021.22 1021.34 1021.38 1021.50 1021.54 1021.66 1021.70 1021.74 1021.78 1021.82 1021.82 1021.78
1010.54 1010.82 1010.98 1011.26 1011.50 1011.74 1011.98 1012.22 1012.46 1012.70 1012.86 1013.06 1013.26 1013.50 1013.78 1013.98 1014.14 1014.34 1014.54 1014.78 1014.98 1015.26 1015.50 1015.78 1016.10 1016.38 1016.58 1016.82 1017.06 1017.34 1017.58 1017.82 1018.10 1018.34 1018.62 1018.90 1019.18 1019.42 1019.66 1019.86 1019.98 1020.10 1020.26 1020.34 1020.38 1020.38 1020.38 1020.38 1020.34 1020.34 1020.38 1020.46 1020.58 1020.70 1020.82 1020.94 1021.02 1021.14 1021.26 1021.34 1021.38 1021.42 1021.46 1021.54 1021.62 1021.66 1021.70 1021.70 1021.70
1010.54 1010.82 1011.06 1011.38 1011.66 1011.90 1012.14 1012.42 1012.70 1012.94 1013.10 1013.26 1013.46 1013.70 1013.98 1014.26 1014.42 1014.54 1014.70 1014.86 1015.10 1015.38 1015.58 1015.86 1016.18 1016.46 1016.70 1016.94 1017.18 1017.42 1017.70 1017.94 1018.18 1018.42 1018.70 1018.94 1019.22 1019.50 1019.70 1019.86 1019.98 1020.10 1020.18 1020.22 1020.22 1020.18 1020.14 1020.14 1020.18 1020.26 1020.34 1020.42 1020.54 1020.70 1020.78 1020.86 1020.98 1021.10 1021.14 1021.26 1021.26 1021.34 1021.38 1021.38 1021.50 1021.54 1021.54 1021.54 1021.58
1010.62 1010.90 1011.18 1011.46 1011.74 1011.94 1012.18 1012.50 1012.82 1013.10 1013.30 1013.46 1013.70 1013.94 1014.22 1014.42 1014.62 1014.70 1014.82 1014.98 1015.26 1015.50 1015.74 1015.98 1016.30 1016.58 1016.82 1017.10 1017.30 1017.54 1017.78 1018.02 1018.26 1018.54 1018.78 1018.98 1019.26 1019.54 1019.70 1019.82 1019.90 1019.98 1020.06 1020.06 1020.02 1019.98 1019.98 1020.06 1020.10 1020.22 1020.30 1020.42 1020.54 1020.62 1020.70 1020.82 1020.86 1020.98 1021.06 1021.10 1021.14 1021.18 1021.22 1021.26 1021.30 1021.34 1021.38 1021.38 1021.46
1010.70 1010.98 1011.30 1011.70 1011.86 1012.06 1012.26 1012.58 1012.98 1013.26 1013.46 1013.62 1013.82 1014.02 1014.26 1014.54 1014.70 1014.82 1014.98 1015.10 1015.38 1015.62 1015.82 1016.10 1016.38 1016.66 1016.94 1017.18 1017.42 1017.66 1017.90 1018.10 1018.38 1018.66 1018.90 1019.10 1019.34 1019.50 1019.66 1019.82 1019.82 1019.82 1019.86 1019.86 1019.86 1019.86 1019.90 1019.98 1020.06 1020.14 1020.26 1020.38 1020.42 1020.54 1020.66 1020.74 1020.82 1020.86 1020.94 1020.98 1020.98 1021.02 1021.06 1021.10 1021.14 1021.14 1021.18 1021.22 1021.26
1010.70 1011.02 1011.38 1011.78 1012.02 1012.18 1012.42 1012.66 1012.98 1013.34 1013.54 1013.74 1013.90 1014.10 1014.30 1014.58 1014.78 1014.94 1015.06 1015.26 1015.46 1015.70 1015.90 1016.10 1016.38 1016.62 1016.90 1017.14 1017.46 1017.74 1017.98 1018.26 1018.50 1018.74 1018.98 1019.14 1019.34 1019.50 1019.62 1019.70 1019.70 1019.70 1019.70 1019.70 1019.78 1019.82 1019.86 1019.94 1020.02 1020.10 1020.18 1020.30 1020.42 1020.54 1020.62 1020.70 1020.74 1020.82 1020.86 1020.90 1020.90 1020.94 1020.98 1020.98 1020.98 1021.02 1021.02 1021.02 1021.06
1010.74 1011.06 1011.42 1011.82 1012.06 1012.26 1012.42 1012.70 1013.02 1013.34 1013.66 1013.82 1014.02 1014.22 1014.42 1014.58 1014.78 1014.98 1015.18 1015.38 1015.62 1015.86 1016.10 1016.30 1016.54 1016.78 1017.02 1017.26 1017.54 1017.82 1018.10 1018.34 1018.62 1018.82 1018.98 1019.10 1019.30 1019.46 1019.54 1019.62 1019.62 1019.62 1019.66 1019.70 1019.70 1019.78 1019.86 1019.94 1019.98 1020.06 1020.14 1020.26 1020.42 1020.50 1020.58 1020.70 1020.74 1020.82 1020.82 1020.86 1020.90 1020.90 1020.86 1020.86 1020.90 1020.90 1020.90 1020.90 1020.94
1010.78 1011.10 1011.42 1011.78 1012.02 1012.26 1012.50 1012.74 1013.02 1013.34 1013.66 1013.90 1014.10 1014.34 1014.50 1014.70 1014.90 1015.10 1015.30 1015.54 1015.78 1016.02 1016.26 1016.54 1016.78 1017.02 1017.30 1017.58 1017.82 1017.98 1018.22 1018.42 1018.58 1018.78 1018.94 1019.06 1019.26 1019.38 1019.50 1019.54 1019.58 1019.58 1019.62 1019.70 1019.74 1019.82 1019.82 1019.94 1019.98 1020.02 1020.10 1020.26 1020.42 1020.54 1020.62 1020.70 1020.74 1020.82 1020.82 1020.86 1020.90 1020.86 1020.82 1020.82 1020.78 1020.78 1020.78 1020.78 1020.78
1010.82 1011.10 1011.42 1011.78 1012.06 1012.34 1012.58 1012.82 1013.10 1013.38 1013.70 1013.94 1014.18 1014.38 1014.54 1014.78 1015.02 1015.22 1015.38 1015.62 1015.90 1016.18 1016.42 1016.66 1016.94 1017.14 1017.38 1017.62 1017.82 1018.02 1018.18 1018.34 1018.54 1018.74 1018.90 1019.06 1019.18 1019.30 1019.42 1019.54 1019.54 1019.54 1019.62 1019.70 1019.70 1019.78 1019.82 1019.90 1019.94 1019.98 1020.14 1020.30 1020.42 1020.54 1020.62 1020.70 1020.74 1020.82 1020.82 1020.86 1020.82 1020.82 1020.74 1020.70 1020.70 1020.70 1020.66 1020.66 1020.58
1010.78 1011.06 1011.38 1011.74 1012.10 1012.38 1012.62 1012.94 1013.22 1013.50 1013.78 1014.02 1014.22 1014.42 1014.58 1014.82 1015.10 1015.30 1015.54 1015.70 1015.98 1016.26 1016.54 1016.78 1017.02 1017.22 1017.38 1017.58 1017.82 1017.98 1018.10 1018.26 1018.46 1018.70 1018.86 1018.98 1019.10 1019.22 1019.34 1019.46 1019.54 1019.54 1019.58 1019.62 1019.70 1019.74 1019.82 1019.82 1019.90 1019.98 1020.10 1020.26 1020.42 1020.50 1020.58 1020.70 1020.74 1020.78 1020.78 1020.78 1020.70 1020.70 1020.62 1020.54 1020.54 1020.54 1020.54 1020.50 1020.42
1010.70 1010.98 1011.30 1011.70 1012.02 1012.38 1012.66 1012.98 1013.26 1013.54 1013.82 1014.06 1014.26 1014.46 1014.66 1014.90 1015.14 1015.38 1015.54 1015.70 1015.94 1016.22 1016.54 1016.82 1017.06 1017.26 1017.38 1017.66 1017.82 1018.02 1018.18 1018.30 1018.42 1018.58 1018.78 1018.94 1018.98 1019.10 1019.26 1019.42 1019.50 1019.54 1019.54 1019.58 1019.66 1019.70 1019.70 1019.78 1019.82 1019.90 1020.02 1020.22 1020.30 1020.42 1020.50 1020.62 1020.70 1020.70 1020.70 1020.70 1020.70 1020.62 1020.54 1020.46 1020.42 1020.42 1020.42 1020.34 1020.26
1010.62 1010.94 1011.26 1011.58 1011.98 1012.30 1012.70 1013.02 1013.34 1013.54 1013.82 1014.06 1014.26 1014.50 1014.74 1014.94 1015.18 1015.38 1015.58 1015.78 1016.02 1016.26 1016.54 1016.82 1017.10 1017.26 1017.46 1017.70 1017.86 1018.06 1018.26 1018.34 1018.42 1018.50 1018.66 1018.82 1018.94 1019.06 1019.22 1019.38 1019.50 1019.54 1019.54 1019.54 1019.58 1019.62 1019.66 1019.70 1019.70 1019.78 1019.90 1020.10 1020.22 1020.30 1020.42 1020.58 1020.70 1020.74 1020.70 1020.70 1020.66 1020.58 1020.54 1020.42 1020.38 1020.34 1020.30 1020.26 1020.14
1010.54 1010.90 1011.26 1011.58 1011.94 1012.30 1012.70 1013.06 1013.38 1013.62 1013.82 1014.06 1014.26 1014.54 1014.74 1014.98 1015.22 1015.46 1015.70 1015.94 1016.18 1016.42 1016.62 1016.86 1017.10 1017.34 1017.54 1017.70 1017.82 1018.02 1018.22 1018.38 1018.42 1018.50 1018.58 1018.74 1018.86 1019.02 1019.18 1019.30 1019.42 1019.50 1019.50 1019.50 1019.54 1019.54 1019.58 1019.58 1019.62 1019.70 1019.82 1020.06 1020.18 1020.26 1020.42 1020.58 1020.70 1020.78 1020.74 1020.70 1020.58 1020.54 1020.50 1020.42 1020.34 1020.26 1020.26 1020.22 1020.10
Wind_Speed
11 10 9 9 9 9 9 8 8 8 8 9 9 9 9 9 9 8 8 7 7 7 7 7 7 6 7 9 9 10 9 9 10 10 10 10 10 9 9 8 9 9 9 8 8 7 7 7 6 5 4 4 4 4 4 3 4 4 4 3 3 3 4 4 4 4 3 3 3
12 11 9 9 9 8 8 8 7 7 8 8 9 9 10 9 9 9 9 9 8 8 7 6 7 8 8 10 10 10 9 9 10 11 10 11 10 10 9 8 9 9 10 9 9 7 6 7 6 5 4 4 4 4 4 3 4 4 4 4 3 3 4 4 4 4 4 4 3
12 11 10 9 9 9 9 8 8 9 9 9 8 8 9 9 9 9 9 9 9 8 8 7 8 9 10 11 10 9 9 9 10 11 11 10 10 10 9 9 9 10 10 9 9 8 7 7 6 5 4 4 5 5 4 3 4 4 4 4 3 3 3 4 4 4 4 3 3
13 12 11 11 12 12 11 9 10 10 10 9 8 8 8 8 8 8 8 8 9 8 8 8 9 9 10 11 10 9 9 9 11 11 11 11 11 10 10 10 10 10 10 9 9 8 8 7 6 5 5 5 5 5 4 4 4 4 3 4 3 3 3 4 4 3 3 3 3
13 13 12 11 13 13 12 11 11 11 10 9 8 8 8 8 7 7 7 8 9 9 9 10 10 9 9 10 11 10 9 9 11 11 11 11 11 11 10 11 11 11 10 10 10 9 9 8 5 5 5 5 5 5 5 5 5 4 3 2 2 3 3 4 3 3 3 3 2
13 13 13 11 13 13 12 11 12 12 11 10 10 9 9 8 8 8 9 9 9 9 10 10 10 9 9 10 11 10 10 10 10 11 12 12 11 11 11 12 12 12 11 10 10 10 9 8 5 4 4 4 4 4 5 6 5 4 3 2 2 2 3 4 3 3 3 3 3
14 14 14 13 13 13 12 11 11 11 11 10 11 11 11 10 10 10 11 10 9 9 9 9 9 9 9 10 10 10 10 9 10 11 12 12 11 12 12 13 13 12 12 11 11 10 9 8 6 5 5 4 4 5 6 6 6 5 4 4 3 2 3 3 3 3 4 5 4
14 14 14 14 14 14 14 13 12 11 11 10 11 12 13 12 12 12 11 10 9 8 8 8 9 10 10 10 10 10 10 10 10 11 12 12 12 12 13 13 13 13 12 11 10 9 8 7 5 5 5 5 4 5 6 7 7 6 6 5 3 2 2 3 3 3 4 6 5
13 13 14 14 15 15 15 14 13 12 11 11 11 12 13 13 13 13 12 10 9 9 9 8 10 10 10 10 10 10 11 11 11 12 12 12 12 13 13 12 12 12 11 10 10 9 8 6 5 5 5 5 5 5 6 8 8 8 7 6 4 3 2 2 3 4 5 6 6
13 13 13 14 15 15 15 14 13 12 12 11 11 11 12 12 13 13 12 10 10 10 10 9 10 11 11 11 11 11 11 11 12 12 13 12 13 13 12 11 12 11 10 9 9 9 8 6 6 5 5 5 5 6 7 8 8 8 7 5 4 4 3 3 4 5 5 6 6
13 13 13 13 15 15 14 13 12 11 11 11 10 11 11 12 12 12 11 11 11 12 12 11 11 11 12 11 11 12 13 12 12 13 13 13 13 13 12 11 11 11 11 10 9 8 7 6 7 7 7 6 6 6 6 7 8 8 7 5 5 5 5 4 4 5 6 6 7
13 13 13 14 14 14 14 13 11 11 11 11 10 11 11 11 12 12 12 12 13 13 13 12 12 12 12 11 11 12 13 13 13 13 13 13 13 12 12 11 11 11 11 11 9 8 7 7 8 8 8 7 6 5 6 6 7 7 7 6 6 6 6 6 5 5 5 6 7
13 13 13 14 15 14 14 12 11 10 11 11 11 10 10 10 12 13 13 13 13 13 12 12 12 12 12 12 12 12 13 13 13 13 12 12 12 12 12 11 11 11 11 10 9 8 8 8 8 8 8 7 6 5 5 6 6 6 7 7 7 7 7 7 6 6 5 5 6
12 12 13 14 15 14 13 12 11 10 11 11 11 10 9 10 11 12 13 13 13 12 12 11 11 11 12 13 13 13 13 13 13 13 12 12 11 12 12 11 11 11 10 9 9 8 8 8 8 8 8 8 7 6 6 6 6 7 7 8 8 8 8 8 7 6 6 6 6
12 13 14 15 15 14 13 13 11 10 11 11 11 10 9 9 10 11 12 13 13 12 12 11 10 11 12 13 13 13 13 13 13 13 13 12 12 12 12 12 12 11 10 9 9 8 8 8 8 8 8 8 7 6 6 6 7 7 8 8 9 9 8 8 7 7 7 7 7
13 13 14 15 16 15 13 12 10 10 11 11 11 10 9 9 10 10 12 13 12 12 11 12 11 11 11 12 12 12 12 12 12 13 13 12 12 12 12 12 12 11 11 10 9 8 7 7 8 8 8 7 7 7 7 7 8 8 8 8 8 8 8 8 8 8 8 8 8
14 14 15 16 16 16 15 13 11 10 11 11 11 10 10 9 9 10 11 13 12 11 12 12 11 11 11 11 11 11 11 11 11 12 12 12 12 12 12 12 12 11 11 11 10 10 9 8 8 8 8 8 7 7 8 9 9 9 8 8 8 8 8 8 8 9 9 9 8
14 15 16 17 17 17 16 14 12 11 11 12 11 11 10 10 10 10 11 12 12 12 13 13 12 11 11 11 10 10 10 10 11 11 11 11 12 12 11 11 11 11 11 12 12 11 11 11 10 9 8 7 7 8 9 10 9 8 7 7 7 7 7 7 8 8 8 8 8
15 16 17 18 18 17 17 15 14 13 12 13 12 11 11 11 11 11 11 11 12 13 13 13 11 11 11 11 10 10 9 9 10 11 11 11 11 11 11 11 11 11 11 12 12 12 12 12 10 9 8 7 8 9 10 10 8 7 6 5 5 5 6 6 6 7 7 7 7
16 16 17 18 18 17 17 16 15 14 13 12 12 12 12 12 12 12 12 11 11 12 12 13 12 11 11 11 11 10 9 8 10 11 11 10 11 11 11 11 11 11 11 11 12 12 11 10 9 8 8 8 10 10 10 9 7 6 5 4 4 5 5 5 5 5 5 6 6
16 17 17 17 17 17 17 16 15 14 13 13 13 13 13 13 12 12 12 12 11 11 11 12 12 12 12 12 12 11 10 8 10 10 10 10 11 11 11 11 11 11 11 11 11 10 9 8 7 7 8 9 10 11 10 9 7 6 5 4 4 4 4 4 4 4 4 5 5
16 16 17 17 17 16 16 15 14 13 13 13 13 13 13 13 12 12 11 11 10 10 10 11 11 12 12 12 12 11 10 8 9 10 10 10 10 11 11 10 11 11 11 10 9 9 8 7 7 8 9 10 11 10 10 9 8 7 6 4 4 4 3 3 3 3 4 4 4
14 14 15 15 15 15 14 13 12 12 12 12 13 13 13 13 12 11 11 10 10 9 9 8 10 11 12 12 12 12 11 10 10 11 11 11 11 11 11 10 10 11 10 9 8 7 7 7 7 8 9 10 10 10 10 9 8 7 5 4 4 3 3 3 3 3 3 4 4
9 10 9 9 10 11 11 10 10 10 11 11 12 13 13 13 12 12 11 11 11 10 9 8 9 10 10 11 12 12 12 12 12 13 13 12 12 12 11 10 10 10 9 6 6 6 6 6 7 8 9 9 9 8 8 7 6 6 5 4 3 3 3 3 3 3 4 4 4
6 7 7 7 9 9 10 10 10 10 11 11 12 13 13 13 13 12 12 11 11 11 10 9 9 9 10 10 11 11 12 12 12 13 13 12 12 11 10 9 9 8 7 5 6 7 7 7 7 8 8 8 7 6 5 5 5 5 4 4 3 3 3 3 3 3 4 4 4
9 9 9 10 11 12 12 12 12 11 11 11 12 12 13 13 13 13 12 12 11 10 10 10 9 9 9 9 10 10 10 10 11 11 11 11 11 11 11 10 9 7 5 5 6 8 10 10 10 9 7 6 5 4 4 3 3 4 4 3 3 2 2 3 3 3 4 4 5
11 10 10 12 14 14 14 13 13 12 12 12 12 12 12 11 11 12 12 11 10 10 9 9 9 9 8 9 10 10 10 9 9 10 10 10 11 11 11 10 8 6 5 6 8 10 11 12 11 9 7 5 4 4 3 3 3 3 3 3 3 3 2 3 3 4 4 4 5
11 11 12 14 15 15 14 14 13 13 12 12 11 11 11 11 11 11 11 10 10 9 8 8 7 7 7 7 10 11 11 10 10 9 10 10 10 11 10 8 7 6 6 8 10 11 12 11 10 8 7 5 4 4 3 3 3 3 2 2 2 3 3 3 3 3 4 5 5
12 13 14 15 15 15 15 14 14 13 11 11 10 10 10 10 10 10 10 10 10 9 7 6 6 6 6 8 9 10 11 11 10 10 10 10 10 9 8 6 6 6 7 10 12 13 12 11 9 8 7 6 4 3 3 3 3 3 2 2 2 3 3 3 3 3 4 5 5
14 14 14 14 14 14 14 13 12 11 9 9 9 9 8 8 8 9 10 10 9 8 7 7 6 7 8 9 9 10 10 10 9 9 9 10 9 8 7 7 7 7 9 12 13 13 12 10 9 8 7 6 5 3 3 3 3 3 3 3 3 3 3 4 4 4 5 5 5
14 13 13 12 12 13 13 11 9 8 7 7 7 7 5 5 6 8 9 9 8 8 7 8 9 9 9 9 9 9 9 9 9 9 9 9 8 8 8 8 9 8 9 12 13 12 11 9 8 8 7 7 5 3 3 3 3 3 3 3 4 4 5 5 5 5 5 5 5
13 12 11 10 11 11 10 8 6 6 7 7 6 5 4 4 5 7 8 8 8 8 8 8 10 10 10 9 8 9 9 9 9 8 8 8 8 9 9 9 9 9 9 12 11 11 9 8 8 7 7 7 5 4 4 3 4 4 4 4 5 6 6 5 5 6 6 6 6
12 10 8 8 9 9 8 6 5 6 7 8 7 7 7 7 6 7 7 8 8 9 9 10 10 10 10 9 9 9 9 9 8 8 8 8 9 9 9 8 7 7 8 10 10 9 8 7 7 7 7 8 6 5 4 4 4 4 4 5 5 6 6 7 6 7 7 7 7
11 9 8 7 7 7 7 6 7 8 8 9 8 9 9 8 8 7 7 7 6 7 8 9 9 9 9 9 9 9 9 8 8 9 9 9 9 9 8 6 4 5 7 9 8 8 7 7 7 7 8 8 6 4 4 4 4 4 4 5 6 6 6 6 7 7 7 7 7
10 9 9 9 8 8 8 8 9 10 10 9 8 8 8 8 8 7 7 6 6 6 6 6 7 7 7 7 7 8 8 8 8 9 9 9 8 7 6 4 3 4 5 8 7 7 7 7 8 8 8 7 5 4 3 4 4 4 5 5 6 6 6 6 6 6 6 7 7
11 11 11 10 10 10 10 10 10 10 10 9 9 8 7 7 7 6 6 6 6 6 6 7 7 7 7 7 6 6 7 8 8 8 8 8 7 6 5 4 2 3 4 6 7 7 7 7 8 8 8 5 3 2 3 3 3 4 5 5 6 6 6 6 6 6 6 6 6
11 11 11 11 11 10 10 10 10 10 10 9 8 8 8 7 6 6 6 6 6 7 7 7 7 7 7 7 6 6 6 7 7 7 7 6 6 6 5 3 2 2 3 5 6 6 7 8 8 8 6 3 2 2 2 3 3 3 4 5 6 6 6 6 6 6 6 7 7
11 11 12 12 11 11 10 10 10 10 9 8 7 7 7 7 6 6 6 6 6 7 7 7 7 7 7 8 7 7 6 6 6 6 6 6 5 5 4 3 2 2 2 3 5 6 7 8 8 7 5 3 3 3 3 3 3 3 4 5 5 6 6 5 5 6 6 7 8
11 12 12 12 12 11 11 10 10 10 9 8 7 7 7 6 6 6 6 6 7 7 7 7 7 7 7 7 6 6 5 6 6 6 6 5 5 5 4 3 2 2 2 3 4 6 7 8 8 7 6 4 3 3 3 3 3 3 4 5 5 6 6 5 5 5 6 7 10
12 12 12 12 12 11 11 10 10 9 8 8 8 8 7 6 6 6 6 6 7 7 7 7 7 7 7 7 6 6 5 5 6 6 6 5 5 5 5 4 3 2 3 3 5 6 7 8 8 8 7 5 4 3 3 2 2 3 4 5 5 5 5 5 5 5 5 6 8
11 11 12 12 11 11 11 10 9 8 7 8 8 7 6 7 6 6 6 6 6 6 6 7 7 7 7 7 7 7 6 6 5 5 5 5 5 5 4 4 3 3 3 3 4 5 7 8 7 7 6 4 3 3 2 2 2 3 4 5 5 5 5 5 5 5 5 5 6
Wind_Direction
178 176 173 171 169 169 170 172 173 173 173 174 175 174 173 172 173 175 176 177 179 180 180 179 179 178 177 176 175 171 166 160 158 158 158 159 160 160 158 155 155 154 154 153 152 151 150 149 148 150 154 156 158 161 163 159 155 154 155 156 158 157 156 155 159 161 160 160 160
179 177 173 170 169 169 169 172 173 174 175 177 177 175 174 174 176 177 178 180 180 179 178 176 176 177 177 178 177 173 167 160 159 158 159 161 162 161 159 157 158 157 156 155 155 155 154 153 152 154 158 159 159 162 165 162 153 152 156 164 164 160 158 161 168 169 167 164 161
179 177 174 170 171 171 171 173 175 176 177 178 178 177 176 177 178 178 179 180 178 176 175 175 177 177 177 177 178 174 168 162 160 159 161 163 163 162 161 159 159 159 158 157 158 158 159 157 156 158 161 163 162 164 166 165 153 152 159 171 168 162 163 170 174 172 167 163 157
180 178 176 173 174 174 175 176 176 176 177 177 178 177 177 178 178 178 177 175 174 175 177 177 176 177 177 176 177 174 169 163 161 161 163 166 166 165 162 160 161 161 160 159 159 160 159 158 158 159 161 161 162 164 166 163 154 154 161 173 166 163 168 176 176 171 164 161 158
182 182 180 176 176 176 177 176 175 176 176 177 177 177 177 178 177 175 174 174 177 179 179 176 175 175 176 175 175 174 170 164 164 164 166 169 169 167 164 162 162 163 162 162 162 161 160 158 158 160 161 162 164 168 167 160 154 155 162 169 163 165 170 176 175 168 159 155 155
184 184 182 178 177 177 178 177 175 175 176 177 177 177 177 177 175 174 175 177 178 177 174 172 171 172 172 174 175 174 172 169 169 169 169 171 171 168 165 165 165 165 165 165 164 162 160 158 158 160 162 161 165 167 165 158 158 162 171 181 179 171 168 174 173 165 155 150 152
186 185 182 178 177 177 178 178 176 176 176 178 178 178 178 177 175 174 174 174 172 171 170 170 169 168 169 172 176 178 178 175 174 173 172 173 172 170 168 168 167 167 167 166 165 163 161 157 158 161 163 161 164 167 168 164 165 170 179 191 190 175 165 173 169 161 154 155 157
188 185 182 177 177 178 179 178 176 176 177 180 180 179 178 174 172 170 168 166 167 169 170 170 167 165 166 173 180 184 183 179 177 176 175 174 174 173 172 170 169 168 168 166 165 164 161 158 159 162 164 163 165 169 171 170 171 176 184 193 194 184 170 170 166 160 157 158 160
190 186 181 176 177 178 179 178 177 177 178 180 180 178 175 171 168 166 165 166 167 168 169 169 166 165 168 177 186 189 188 183 180 179 178 177 176 175 173 170 169 168 167 166 165 163 161 159 162 165 167 168 169 172 174 173 175 179 186 192 192 191 185 174 167 162 159 159 163
191 186 180 176 178 178 178 177 177 177 177 177 175 173 171 168 166 166 167 167 165 167 169 170 167 166 169 179 189 193 192 187 183 182 181 180 178 175 173 170 168 167 166 167 166 164 162 161 164 168 170 171 173 173 174 173 176 180 184 189 186 187 189 190 176 170 167 166 170
191 185 180 177 177 177 176 176 176 177 176 174 171 169 167 167 167 167 167 165 165 169 173 172 169 169 172 178 187 192 193 189 186 184 183 181 179 175 172 169 167 167 167 169 168 167 166 165 167 170 172 174 176 176 175 173 175 178 181 183 181 184 189 194 186 180 176 176 178
190 184 179 175 176 175 175 175 175 176 176 173 170 168 167 169 169 167 166 165 168 172 175 174 173 173 174 177 185 190 191 189 186 184 183 181 178 174 170 167 167 167 168 170 170 170 170 170 170 171 173 176 179 180 180 175 175 177 181 183 184 187 190 193 191 187 184 182 184
189 182 177 174 174 174 175 175 175 176 176 174 172 170 168 170 169 167 166 166 170 173 175 175 174 175 176 178 183 187 189 188 185 183 181 179 175 172 169 167 167 168 169 171 172 172 172 171 170 171 174 178 182 183 182 179 181 185 190 193 194 195 196 196 192 189 186 186 191
186 180 175 173 173 174 175 176 176 177 177 176 176 173 169 169 170 168 167 168 171 173 174 174 175 176 177 179 181 184 186 186 183 181 179 177 173 170 168 167 168 169 170 171 173 172 171 171 172 174 177 180 183 184 184 187 193 198 201 201 201 201 201 201 196 190 186 188 196
184 178 174 171 173 175 177 177 178 178 178 178 179 175 171 169 171 170 168 169 171 172 172 172 175 176 178 179 180 181 182 182 180 178 176 174 172 170 169 168 168 169 169 170 170 170 170 171 176 179 182 183 185 188 194 203 209 211 210 206 204 203 203 204 201 196 192 191 196
183 177 173 171 174 176 177 178 179 178 178 180 180 177 172 171 171 170 169 169 170 171 171 172 174 176 177 178 177 177 177 178 176 175 174 173 173 171 170 169 168 167 167 166 167 167 168 174 182 185 185 185 187 197 209 219 222 221 217 210 206 203 203 203 203 202 199 196 196
182 177 174 172 174 176 177 178 179 178 178 180 180 177 173 171 171 170 170 169 169 170 170 172 174 174 174 174 173 173 174 175 175 175 175 174 173 172 171 169 167 165 165 165 164 166 171 183 187 187 185 184 192 206 219 227 227 225 219 213 207 204 202 202 202 202 202 199 198
182 177 174 174 175 176 177 177 177 177 177 179 179 177 174 171 170 170 170 169 169 169 169 171 172 171 170 170 170 170 171 173 174 175 174 173 172 171 170 168 165 163 163 164 165 170 178 188 189 186 183 184 199 214 224 229 228 224 217 210 205 202 201 200 200 200 200 199 200
182 177 175 175 175 176 176 176 176 176 176 178 178 175 172 169 168 167 168 169 168 167 167 167 167 167 166 166 166 166 168 170 172 173 172 170 169 169 168 166 164 163 164 165 170 178 185 189 186 182 181 190 208 219 226 229 226 220 210 200 196 195 195 196 196 196 197 197 200
180 176 174 175 175 175 175 176 175 175 175 176 175 171 168 166 165 165 166 168 166 164 163 163 163 163 163 163 162 163 165 167 169 169 169 167 167 166 167 166 165 165 167 171 178 185 189 188 182 181 188 203 215 222 226 228 225 219 209 197 192 189 189 189 190 192 193 196 200
178 175 174 173 174 175 175 176 175 174 174 174 171 167 163 162 162 163 163 162 159 159 159 160 159 160 161 161 161 161 161 161 164 164 164 164 165 166 167 166 167 169 173 179 185 187 186 182 182 189 202 214 220 223 224 225 223 220 216 209 203 198 194 191 189 191 194 198 202
176 174 172 172 173 174 175 175 174 173 171 170 165 161 158 157 158 158 157 154 152 153 156 157 157 158 160 161 160 158 157 155 158 159 160 162 165 166 167 167 170 175 180 185 186 184 181 180 190 201 212 220 222 222 221 218 217 217 216 217 217 215 212 207 204 205 207 211 213
176 173 171 170 170 171 171 171 169 168 165 162 157 154 152 152 151 150 149 147 148 150 152 153 154 156 158 158 157 155 154 153 156 157 159 161 164 166 167 168 174 180 185 188 183 180 180 188 202 212 219 223 222 219 215 210 207 206 208 213 219 226 229 230 227 227 229 231 231
174 168 162 156 155 156 156 155 154 153 152 150 148 147 146 146 145 145 145 146 147 150 152 152 152 153 153 154 154 153 154 156 159 160 161 162 164 165 167 169 177 183 185 183 180 181 186 196 210 220 225 225 219 212 204 196 192 191 194 202 213 227 238 245 243 242 241 243 243
133 124 119 119 125 129 130 131 133 135 137 138 139 141 142 144 144 145 146 147 148 149 149 149 148 148 149 151 152 153 155 159 163 164 163 162 163 164 167 172 181 184 184 180 187 194 199 206 215 222 225 222 210 197 184 175 173 174 178 187 200 218 238 255 258 255 251 248 247
102 104 108 115 117 118 118 120 122 124 127 130 133 136 139 143 144 145 146 147 147 146 146 146 146 146 147 149 151 153 157 162 165 165 163 161 162 164 168 176 182 184 185 188 199 207 213 217 219 218 215 206 191 177 166 161 159 161 165 173 182 196 219 247 260 264 263 259 256
106 112 119 122 119 117 117 117 117 119 122 126 131 134 138 141 143 144 145 145 143 142 141 142 144 144 145 147 152 155 158 161 160 159 158 157 162 167 172 179 183 185 189 197 207 213 216 217 212 205 194 181 171 165 162 163 161 158 159 164 170 180 196 222 243 256 264 268 267
121 128 130 125 121 119 118 116 115 117 120 124 129 132 135 137 139 141 142 141 139 138 138 140 141 141 143 149 156 158 158 157 154 153 154 158 165 171 175 181 184 189 197 203 207 209 208 204 195 184 173 165 163 162 164 168 169 169 169 172 177 185 197 213 230 243 254 263 268
135 135 132 125 123 121 120 118 117 116 117 118 121 124 127 130 134 137 138 138 138 138 140 140 139 141 147 154 158 157 155 153 152 152 155 160 168 174 179 184 190 198 203 203 202 199 195 188 181 174 169 164 162 164 167 171 176 180 185 189 194 201 211 222 233 241 249 256 263
138 135 130 126 126 126 124 121 116 113 111 112 114 116 118 122 130 135 137 139 140 142 142 140 142 148 153 156 155 154 153 153 153 153 155 160 166 174 183 194 203 207 205 199 194 190 185 180 177 175 173 170 167 168 172 179 184 190 198 206 210 215 220 228 235 241 247 252 259
135 132 128 127 131 132 129 123 114 108 109 115 118 118 121 129 140 143 143 143 144 142 140 139 144 149 152 151 150 151 152 153 152 154 157 162 169 179 191 203 208 208 202 193 188 184 180 177 178 178 178 177 176 179 186 194 197 201 207 214 218 221 224 228 232 237 242 246 252
133 129 125 127 134 135 131 123 113 112 118 126 130 137 147 159 161 156 150 145 143 141 141 142 147 149 148 147 147 148 150 150 153 157 162 169 179 190 200 209 207 203 196 190 185 181 179 179 182 185 187 187 188 192 200 205 209 212 215 219 222 223 225 228 231 235 238 242 246
134 130 127 131 136 135 130 121 118 122 127 133 139 145 153 160 162 158 151 145 144 145 147 149 151 151 150 148 147 148 149 153 157 163 171 180 190 199 205 208 203 195 189 186 182 179 180 184 191 197 199 198 200 203 209 216 219 222 225 227 228 227 227 228 231 234 238 241 244
135 134 135 142 141 137 131 126 125 127 129 134 139 143 147 151 154 154 151 146 145 147 149 152 153 153 152 150 150 151 155 161 167 174 182 191 197 201 202 202 197 187 181 180 179 181 186 193 202 208 210 208 208 212 218 225 231 235 236 237 237 236 234 233 234 236 239 242 246
139 138 139 143 142 137 131 127 126 128 131 135 138 141 143 146 149 150 148 144 142 143 145 147 148 149 149 150 152 156 162 168 176 184 190 195 195 195 193 192 188 175 171 175 180 186 194 202 211 216 217 215 215 218 222 229 236 240 242 244 246 246 246 244 243 244 245 246 249
141 139 138 138 137 134 130 128 128 130 133 137 139 140 142 144 146 145 143 139 139 140 141 143 144 146 149 153 158 163 170 176 182 187 190 188 183 180 178 180 178 168 167 174 183 192 202 211 218 221 221 219 220 222 225 229 237 242 246 249 252 252 252 251 251 251 252 252 252
141 138 136 135 134 133 131 130 130 132 136 140 142 143 144 144 143 142 139 138 139 141 144 145 148 152 156 161 166 172 177 179 180 180 178 172 166 163 162 165 172 175 176 180 190 200 209 217 223 222 220 214 216 220 225 229 237 243 247 250 253 253 253 252 252 253 254 254 254
138 136 134 133 133 133 132 131 133 136 140 143 143 144 144 141 140 140 140 140 142 145 147 149 154 158 162 165 168 171 173 172 168 165 162 157 152 149 148 153 173 195 199 195 201 209 216 222 224 219 209 195 203 208 214 219 231 239 244 246 250 253 253 253 252 253 254 254 255
134 133 133 132 132 133 133 133 136 139 141 142 141 140 139 136 136 138 140 141 143 146 149 152 157 161 162 161 161 161 160 157 153 150 148 148 144 140 139 148 177 213 223 213 211 214 219 223 223 213 201 190 195 198 202 207 223 235 242 245 250 254 256 256 254 254 255 256 257
132 131 131 131 132 133 134 135 138 139 139 137 136 136 135 133 133 134 136 136 140 144 148 152 156 158 156 152 149 148 145 143 142 141 141 142 139 138 140 154 185 217 233 226 218 218 220 223 220 209 197 188 189 189 190 195 218 238 247 250 251 255 259 260 257 256 257 259 260
128 128 128 129 131 132 133 134 135 135 134 133 134 134 133 130 129 130 131 133 137 141 145 149 151 150 147 143 141 140 140 139 141 140 139 139 139 142 149 164 190 217 237 241 230 225 224 224 219 207 194 182 180 177 175 180 214 240 249 251 249 251 256 261 263 264 264 265 266